User: anonymous   Login
Location: Unspecified
(0.0000°N, 0.0000°E)
Time: 08:33:59
(UTC+02:00)
Language:

Iridium 33 - Orbit

View from above orbital plane
View from above orbital plane
View from above satellite
View from above satellite

Ground track
Ground track

The orbit data is extracted from the following two-line orbital elements,

1 24946U 97051C   16208.55700594  .00000074  00000-0  19721-4 0  9994
2 24946  86.3852  63.0452 0006539 211.1404 148.9405 14.33501287987385
Epoch (UTC): 26 July 2016 13:22:05
Eccentricity: 0.0006539
inclination: 86.3852°
perigee height: 775 km
apogee height: 785 km
right ascension of ascending node: 63.0452°
argument of perigee: 211.1404°
revolutions per day: 14.33501287
mean anomaly at epoch: 148.9405°
orbit number at epoch: 98738

The dashed part of the orbit path shows where the satellite is in the earth's shadow,  

DLR